Location: Sternwarte_Laufen
(47.9344°N, 12.9346°E)
Time: 03:36:50
(UTC+02:00)

ISS - Pass Details

Date: 08 July 2025
Orbit: 413 x 417 km, 51.6° (Epoch: 12 July)

Event Time Altitude Azimuth Distance (km) Brightness Sun altitude
Rises 02:49:49 0° 290° (WNW) 2,359 0.0 -16.3°
Reaches altitude 10° 02:51:56 10° 295° (WNW) 1,495 -0.9 -16.2°
Maximum altitude 02:55:15 58° 15° (NNE) 490 -3.1 -16.0°
Drops below altitude 10° 02:58:34 10° 96° (E) 1,493 -0.7 -15.7°
Sets 03:00:41 0° 101° (E) 2,356 0.2 -15.6°
